Papa, Hungary

4:33 AM CEST on September 23, 2017 (GMT +0200)
Papa

Weather History for LHPA - March, 2013

Change the Weather History Date:

Saturday, March 23, 2013

  Actual Average Record
Temperature  
Mean Temperature 30 °F -  
Max Temperature 37 °F - - ()
Min Temperature 23 °F - - ()
Degree Days  
Heating Degree Days 35    
Moisture  
Dew Point 22 °F    
Average Humidity 72    
Maximum Humidity 93    
Minimum Humidity 52    
Precipitation  
Precipitation 0.00 in - - ()
Sea Level Pressure  
Sea Level Pressure 30.05 in    
Wind  
Wind Speed 6 mph ()    
Max Wind Speed 9 mph    
Max Gust Speed -    
Visibility 5.6 miles    
Events      
T = Trace of Precipitation, MM = Missing Value Source: Averaged Metar Reports

Daily Weather History Graph

Daily Weather History Graph

Search for Another Location

Airport or City:

Trip Planner

Search our weather history database for the weather conditions in past years. The results will help you decide how hot, cold, wet, or windy it might be!

Date:

Astronomy

Mar. 23, 2013 Rise Set
Actual Time 5:47 AM CET 6:06 PM CET
Civil Twilight 5:16 AM CET 6:37 PM CET
Nautical Twilight 4:40 AM CET 7:13 PM CET
Astronomical Twilight 4:03 AM CET 7:51 PM CET
Moon 2:02 PM CET 3:27 AM CET
Length of Visible Light 13h 21m
Length of Day
12h 19m
Waxing Gibbous, 83% of the Moon is Illuminated
Mar 23
Waxing Gibbous
Mar 27
Full
Apr 3
Last Quarter
Apr 10
New
Apr 18
First Quarter

Hourly Weather History & Observations

Time (CET) Temp. Windchill Dew Point Humidity Pressure Visibility Wind Dir Wind Speed Gust Speed Precip Events Conditions
12:15 AM 24.8 °F 15.5 °F 21.2 °F 86% 30.04 in 5.0 mi NW 8.9 mph - N/A   Clear
12:45 AM 24.8 °F 17.1 °F 19.4 °F 80% 30.01 in 5.0 mi NNW 6.7 mph - N/A   Clear
1:15 AM 24.8 °F 17.1 °F 21.2 °F 86% 30.04 in 5.0 mi NNW 6.7 mph - N/A   Clear
1:45 AM 24.8 °F 15.5 °F 21.2 °F 86% 30.04 in 5.0 mi NNW 8.9 mph - N/A   Clear
2:15 AM 24.8 °F 15.5 °F 21.2 °F 86% 30.04 in 5.0 mi NNW 8.9 mph - N/A   Clear
2:45 AM 24.8 °F 17.1 °F 19.4 °F 80% 30.04 in 5.0 mi NW 6.7 mph - N/A   Clear
3:15 AM 24.8 °F 17.1 °F 21.2 °F 86% 30.04 in 5.0 mi NW 6.7 mph - N/A   Clear
4:15 AM 23.0 °F 14.9 °F 19.4 °F 86% 30.04 in 5.0 mi NW 6.7 mph - N/A   Unknown
4:45 AM 23.0 °F 14.9 °F 19.4 °F 86% 30.04 in 5.0 mi NW 6.7 mph - N/A   Unknown
5:15 AM 23.0 °F 14.9 °F 19.4 °F 86% 30.04 in 5.0 mi NW 6.7 mph - N/A   Unknown
5:45 AM - - - N/A% - 6.2 mi North 6.7 mph - N/A   Clear
6:15 AM 23.0 °F 17.1 °F 19.4 °F 86% 30.04 in 5.0 mi NNW 4.5 mph - N/A   Unknown
6:45 AM 24.8 °F 19.2 °F 23.0 °F 93% 30.04 in 5.0 mi NNW 4.5 mph - N/A   Unknown
7:15 AM 26.6 °F 21.3 °F 23.0 °F 86% 30.04 in 3.7 mi North 4.5 mph - N/A   Unknown
7:45 AM 28.4 °F 23.4 °F 24.8 °F 86% 30.06 in 3.7 mi North 4.5 mph - N/A   Unknown
8:15 AM 28.4 °F 19.9 °F 23.0 °F 80% 30.06 in 5.0 mi North 8.9 mph - N/A   Mostly Cloudy
8:45 AM 30.2 °F 22.1 °F 23.0 °F 75% 30.06 in 5.0 mi NNE 8.9 mph - N/A   Mostly Cloudy
9:15 AM 32.0 °F 24.3 °F 21.2 °F 64% 30.06 in 6.2 mi North 8.9 mph - N/A   Mostly Cloudy
9:45 AM 30.2 °F 22.1 °F 21.2 °F 69% 30.06 in 6.2 mi North 8.9 mph - N/A   Mostly Cloudy
10:15 AM 32.0 °F 25.7 °F 19.4 °F 60% 30.06 in 6.2 mi NNW 6.7 mph - N/A   Mostly Cloudy
10:45 AM 32.0 °F 24.3 °F 21.2 °F 64% 30.06 in 6.2 mi NW 8.9 mph - N/A   Mostly Cloudy
11:15 AM 32.0 °F 24.3 °F 21.2 °F 64% 30.06 in 6.2 mi NNW 8.9 mph - N/A   Mostly Cloudy
11:45 AM - - - N/A% - 6.2 mi Variable 4.5 mph - N/A   Mostly Cloudy
12:15 PM 32.0 °F 25.7 °F 21.2 °F 64% 30.06 in 6.2 mi WNW 6.7 mph - N/A   Mostly Cloudy
12:45 PM 33.8 °F 27.9 °F 21.2 °F 60% 30.06 in 6.2 mi WNW 6.7 mph - N/A   Mostly Cloudy
1:15 PM 33.8 °F 27.9 °F 21.2 °F 60% 30.06 in 6.2 mi WNW 6.7 mph - N/A   Mostly Cloudy
1:45 PM 35.6 °F 30.0 °F 21.2 °F 56% 30.06 in 6.2 mi WNW 6.7 mph - N/A   Mostly Cloudy
2:15 PM 35.6 °F 31.8 °F 21.2 °F 56% 30.04 in - WNW 4.5 mph - N/A   Clear
2:45 PM - - - N/A% - 6.2 mi Variable 4.5 mph - N/A   Mostly Cloudy
3:15 PM 35.6 °F 31.8 °F 21.2 °F 56% 30.04 in - NW 4.5 mph - N/A   Clear
3:45 PM 37.4 °F - 21.2 °F 52% 30.04 in - SE 2.2 mph - N/A   Clear
4:15 PM 37.4 °F - 21.2 °F 52% 30.04 in - West 2.2 mph - N/A   Clear
4:45 PM 37.4 °F - 23.0 °F 56% 30.04 in - West 2.2 mph - N/A   Clear
5:15 PM 37.4 °F - 23.0 °F 56% 30.04 in - WNW 2.2 mph - N/A   Clear
5:45 PM - - - N/A% - 6.2 mi Variable 4.5 mph - N/A   Mostly Cloudy
6:15 PM 35.6 °F 31.8 °F 23.0 °F 60% 30.04 in 6.2 mi NNW 4.5 mph - N/A   Mostly Cloudy
6:45 PM 35.6 °F 30.0 °F 24.8 °F 65% 30.04 in 6.2 mi ENE 6.7 mph - N/A   Mostly Cloudy
7:15 PM 35.6 °F 30.0 °F 24.8 °F 65% 30.06 in 6.2 mi ENE 6.7 mph - N/A   Mostly Cloudy
7:45 PM 33.8 °F 27.9 °F 24.8 °F 70% 30.06 in 6.2 mi ENE 6.7 mph - N/A   Mostly Cloudy
8:15 PM 33.8 °F 27.9 °F 24.8 °F 70% 30.06 in 6.2 mi ENE 6.7 mph - N/A   Mostly Cloudy
8:45 PM - - - N/A% - 6.2 mi Variable 4.5 mph - N/A   Mostly Cloudy
9:15 PM 33.8 °F 29.7 °F 24.8 °F 70% 30.06 in 6.2 mi East 4.5 mph - N/A   Mostly Cloudy
9:45 PM 33.8 °F - 24.8 °F 70% 30.06 in 5.0 mi East 2.2 mph - N/A   Unknown
10:15 PM 32.0 °F 27.6 °F 26.6 °F 80% 30.06 in 5.0 mi NNE 4.5 mph - N/A   Unknown
10:45 PM 32.0 °F 27.6 °F 26.6 °F 80% 30.06 in 5.0 mi NNE 4.5 mph - N/A   Unknown
11:15 PM 32.0 °F 27.6 °F 26.6 °F 80% 30.06 in 5.0 mi ENE 4.5 mph - N/A   Unknown
11:45 PM - - - N/A% - 6.2 mi North - - N/A   Mostly Cloudy